{"data":{"norad_id":61580,"epoch":"2026-09-21T14:15:22.276512Z","epoch_age_seconds":97552,"freshness":"FRESH","line1":"1 61580U 24187G   26264.59400783 -.00000650  00000+0 -50826-6 0  9997","line2":"2 61580  53.1603  50.1976 0001013  81.6152 278.4980 15.69705368111579","mean_motion":15.69705368,"eccentricity":0.0001013,"inclination_deg":53.1603,"raan_deg":50.1976,"arg_perigee_deg":81.6152,"mean_anomaly_deg":278.498,"bstar":-5.0826e-7,"rev_number":11157,"period_min":91.736960919917,"perigee_km":359.05745852269,"apogee_km":360.42255240399,"semimajor_km":6737.8770054633,"source":"CELESTRAK","updated_at":"2026-09-22T09:00:49.391230Z"}}